Date String (YYYY-MM-DD hh:mm:ss) UTC,Instrument flags,Ambient pressure (hPa),Sample flow (lpm),Bypass flow (lpm),Sample temperature (°C),Ambient temperature (°C),ASC tube jacket temperature (°C),LED temperature (°C),Box temperature (°C),Sample RH (%),Span deviation,Mass concentration (μg/m³),Mass concentration (μg/m³),Mass concentration (μg/m³)
DateTimeUTC,F1_M11,P_M11,Q1_M11,Q2_M11,T1_M11,T2_M11,T3_M11,T4_M11,T5_M11,U1_M11,ZSPAN_M11,X0_M11,X2_M11,X1_M11
2023-05-16 18:00:00,,0833.8,5.01,0.00,29.5,26.9,00.0,37.9,31.0,18.1,0000.0,0010.17,0004.48,0003.35
2023-05-16 18:01:00,,0833.9,5.02,0.00,29.5,27.2,00.0,37.9,31.1,18.1,0000.0,0009.64,0004.46,0003.35
2023-05-16 18:02:00,,0833.8,5.00,0.00,29.5,27.4,00.0,37.9,31.1,19.3,0000.0,0009.60,0004.46,0003.36
2023-05-16 18:03:00,,0833.9,4.99,0.00,29.5,27.6,00.0,37.9,31.1,19.2,0000.0,0009.60,0004.46,0003.36
2023-05-16 18:04:00,,0833.9,5.00,0.00,29.6,27.8,00.0,37.9,31.2,19.3,0000.0,0009.25,0004.42,0003.35
2023-05-16 18:05:00,,0833.9,4.99,0.00,29.6,27.9,00.0,37.9,31.2,19.7,0000.0,0009.24,0004.43,0003.35
2023-05-16 18:06:00,,0833.8,5.00,0.00,29.6,28.0,00.0,37.9,31.2,17.9,0000.0,0009.15,0004.43,0003.34
2023-05-16 18:07:00,,0833.8,5.01,0.00,29.6,28.1,00.0,37.9,31.3,18.3,0000.0,0009.55,0004.43,0003.33
2023-05-16 18:08:00,,0833.8,5.00,0.00,29.6,28.2,00.0,37.9,31.3,17.5,0000.0,0009.63,0004.42,0003.32
2023-05-16 18:09:00,,0833.8,4.99,0.00,29.6,28.3,00.0,37.9,31.3,17.8,0000.0,0009.86,0004.45,0003.33
2023-05-16 18:10:00,,0833.8,5.00,0.00,29.7,28.3,00.0,37.9,31.3,17.9,0000.0,0009.81,0004.44,0003.32
2023-05-16 18:11:00,,0833.8,5.02,0.00,29.7,28.4,00.0,37.9,31.4,18.0,0000.0,0010.48,0004.42,0003.32
2023-05-16 18:12:00,,0833.9,4.99,0.00,29.7,28.3,00.0,38.0,31.4,19.0,0000.0,0010.86,0004.40,0003.31
2023-05-16 18:13:00,,0833.8,4.99,0.00,29.7,27.0,00.0,37.9,31.2,18.4,0000.0,0011.21,0004.40,0003.30
2023-05-16 18:14:00,,0833.8,5.00,0.00,29.6,25.4,00.0,37.8,30.9,17.6,0000.0,0011.11,0004.36,0003.28
2023-05-16 18:15:00,,0833.8,5.01,0.00,29.6,25.2,00.0,37.7,30.9,17.5,0000.0,0011.24,0004.39,0003.28
2023-05-16 18:16:00,,0833.7,5.02,0.00,29.5,25.5,00.0,37.7,30.8,17.8,0000.0,0011.84,0004.45,0003.28
2023-05-16 18:17:00,,0833.7,4.98,0.00,29.4,25.9,00.0,37.7,30.8,19.2,0000.0,0011.85,0004.47,0003.28
2023-05-16 18:18:00,,0833.7,4.99,0.00,29.4,26.3,00.0,37.7,30.8,18.0,0000.0,0011.04,0004.46,0003.30
2023-05-16 18:19:00,,0833.7,5.01,0.00,29.4,26.6,00.0,37.7,30.8,17.8,0000.0,0011.50,0004.49,0003.32
2023-05-16 18:20:00,,0833.7,5.01,0.00,29.4,26.9,00.0,37.7,30.9,17.9,0000.0,0011.36,0004.49,0003.33
2023-05-16 18:21:00,,0833.8,5.00,0.00,29.4,27.1,00.0,37.7,30.9,17.7,0000.0,0011.27,0004.44,0003.33
2023-05-16 18:22:00,,0833.8,5.00,0.00,29.4,27.4,00.0,37.7,31.0,18.9,0000.0,0011.42,0004.46,0003.32
2023-05-16 18:23:00,,0833.8,4.98,0.00,29.4,27.5,00.0,37.7,31.0,17.9,0000.0,0010.81,0004.47,0003.32
2023-05-16 18:24:00,,0833.8,4.99,0.00,29.4,27.7,00.0,37.7,31.0,18.4,0000.0,0010.56,0004.45,0003.31
2023-05-16 18:25:00,,0833.8,5.01,0.00,29.4,27.8,00.0,37.7,31.1,18.8,0000.0,0010.69,0004.48,0003.32
2023-05-16 18:26:00,,0833.8,5.00,0.00,29.5,27.9,00.0,37.7,31.1,18.2,0000.0,0010.70,0004.46,0003.31
2023-05-16 18:27:00,,0833.8,5.01,0.00,29.5,28.0,00.0,37.8,31.2,17.8,0000.0,0010.19,0004.39,0003.30
2023-05-16 18:28:00,,0833.7,4.98,0.00,29.5,28.1,00.0,37.8,31.2,17.6,0000.0,0010.23,0004.44,0003.30
2023-05-16 18:29:00,,0833.8,5.01,0.00,29.5,28.2,00.0,37.8,31.2,18.1,0000.0,0010.58,0004.49,0003.29
2023-05-16 18:30:00,,0833.8,5.00,0.00,29.6,28.3,00.0,37.8,31.2,18.3,0000.0,0010.18,0004.51,0003.28
2023-05-16 18:31:00,,0833.7,5.01,0.00,29.6,28.3,00.0,37.8,31.3,18.6,0000.0,0010.06,0004.50,0003.29
2023-05-16 18:32:00,,0833.7,5.01,0.00,29.6,28.4,00.0,37.8,31.3,19.8,0000.0,0010.16,0004.53,0003.31
2023-05-16 18:33:00,,0833.7,5.01,0.00,29.7,28.4,00.0,37.9,31.4,20.0,0000.0,0010.04,0004.54,0003.33
2023-05-16 18:34:00,,0833.8,4.98,0.00,29.7,27.7,00.0,37.9,31.3,20.6,0000.0,0010.14,0004.56,0003.35
2023-05-16 18:35:00,,0833.7,4.99,0.00,29.6,26.3,00.0,37.8,31.1,20.0,0000.0,0010.15,0004.63,0003.38
2023-05-16 18:36:00,,0833.7,5.02,0.00,29.6,26.2,00.0,37.7,31.0,19.4,0000.0,0010.02,0004.62,0003.40
2023-05-16 18:37:00,,0833.7,5.00,0.00,29.5,26.4,00.0,37.7,30.9,18.6,0000.0,0010.85,0004.67,0003.42
2023-05-16 18:38:00,,0833.7,5.00,0.00,29.5,26.7,00.0,37.8,30.9,18.6,0000.0,0011.46,0004.72,0003.43
2023-05-16 18:39:00,,0833.7,5.00,0.00,29.5,26.9,00.0,37.8,31.0,18.9,0000.0,0011.47,0004.69,0003.45
2023-05-16 18:40:00,,0833.7,5.00,0.00,29.5,27.2,00.0,37.8,31.0,19.8,0000.0,0011.83,0004.67,0003.46
2023-05-16 18:41:00,,0833.6,4.99,0.00,29.5,27.4,00.0,37.8,31.1,19.4,0000.0,0012.25,0004.67,0003.48
2023-05-16 18:42:00,,0833.7,4.99,0.00,29.5,27.6,00.0,37.8,31.1,18.9,0000.0,0012.33,0004.70,0003.48
2023-05-16 18:43:00,,0833.7,4.99,0.00,29.5,27.8,00.0,37.8,31.2,18.7,0000.0,0012.45,0004.75,0003.48
2023-05-16 18:44:00,,0833.7,5.00,0.00,29.5,27.9,00.0,37.8,31.2,18.9,0000.0,0012.47,0004.84,0003.48
2023-05-16 18:45:00,,0833.6,5.00,0.00,29.6,28.0,00.0,37.8,31.2,18.7,0000.0,0012.33,0004.88,0003.48
2023-05-16 18:46:00,,0833.6,5.01,0.00,29.6,28.1,00.0,37.8,31.3,19.2,0000.0,0012.23,0004.84,0003.47
2023-05-16 18:47:00,,0833.6,5.00,0.00,29.6,28.2,00.0,37.8,31.3,19.1,0000.0,0012.24,0004.83,0003.47
2023-05-16 18:48:00,,0833.5,4.99,0.00,29.6,28.3,00.0,37.9,31.3,17.7,0000.0,0011.45,0004.82,0003.47
2023-05-16 18:49:00,,0833.4,5.00,0.00,29.7,28.2,00.0,37.9,31.3,17.4,0000.0,0010.95,0004.81,0003.47
2023-05-16 18:50:00,,0833.5,5.00,0.00,29.6,26.6,00.0,37.8,31.1,18.0,0000.0,0010.69,0004.80,0003.47
2023-05-16 18:51:00,,0833.5,5.00,0.00,29.5,25.1,00.0,37.7,30.8,17.9,0000.0,0010.02,0004.78,0003.46
2023-05-16 18:52:00,,0833.4,5.01,0.00,29.5,25.1,00.0,37.7,30.7,17.5,0000.0,0009.95,0004.79,0003.45
2023-05-16 18:53:00,,0833.5,5.00,0.00,29.4,25.4,00.0,37.7,30.6,17.9,0000.0,0010.19,0004.77,0003.45
2023-05-16 18:54:00,,0833.5,5.01,0.00,29.3,25.8,00.0,37.6,30.6,18.9,0000.0,0010.10,0004.76,0003.46
2023-05-16 18:55:00,,0833.5,5.00,0.00,29.3,26.2,00.0,37.6,30.7,18.9,0000.0,0009.94,0004.70,0003.46
2023-05-16 18:56:00,,0833.5,4.99,0.00,29.3,26.6,00.0,37.6,30.8,18.7,0000.0,0009.99,0004.73,0003.47
2023-05-16 18:57:00,,0833.5,5.00,0.00,29.3,26.9,00.0,37.6,30.8,19.2,0000.0,0010.04,0004.71,0003.45
2023-05-16 18:58:00,,0833.4,5.00,0.00,29.3,27.1,00.0,37.6,30.9,19.4,0000.0,0010.18,0004.73,0003.44
2023-05-16 18:59:00,,0833.4,5.00,0.00,29.3,27.3,00.0,37.6,30.9,20.1,0000.0,0010.16,0004.71,0003.43
